AVR4844 SKIB-SKBO

Flight info

Callsign AVR4844
Flight time N/A
Altitude 15000
Route ABL1H ABL ABL3L
Aircraft A320/M-SDE3FGHIRWY/LB1

Departure

Time N/A
Airport Perales Airport (SKIB)

Arrival

Time 2026-05-06 22:30
Airport El Dorado International Airport (SKBO)
Time Latitude Longitude Altitude Speed Heading
2026-05-06 22:20 4.79460 -74.73840 15028 ft 356 kts 70°
2026-05-06 22:20 4.80309 -74.71506 15051 ft 356 kts 70°
2026-05-06 22:21 4.81160 -74.69171 15063 ft 357 kts 70°
2026-05-06 22:21 4.82013 -74.66834 15072 ft 358 kts 70°
2026-05-06 22:21 4.82873 -74.64493 15037 ft 358 kts 70°
2026-05-06 22:21 4.83721 -74.62189 15017 ft 355 kts 70°
2026-05-06 22:22 4.84558 -74.59915 14919 ft 341 kts 70°
2026-05-06 22:22 4.85370 -74.57711 14646 ft 334 kts 70°
2026-05-06 22:22 4.86168 -74.55541 14269 ft 331 kts 70°
2026-05-06 22:22 4.86960 -74.53382 13862 ft 329 kts 70°
2026-05-06 22:23 4.87745 -74.51239 13564 ft 324 kts 71°
2026-05-06 22:23 4.88186 -74.49076 13440 ft 313 kts 89°
2026-05-06 22:23 4.88023 -74.46938 13319 ft 303 kts 96°
2026-05-06 22:23 4.87787 -74.44877 13185 ft 293 kts 96°
2026-05-06 22:24 4.87556 -74.42887 13071 ft 280 kts 96°
2026-05-06 22:24 4.87338 -74.41035 12980 ft 255 kts 96°
2026-05-06 22:24 4.87136 -74.39322 12833 ft 239 kts 97°
2026-05-06 22:24 4.86702 -74.37742 12509 ft 235 kts 116°
2026-05-06 22:25 4.85794 -74.36397 12175 ft 233 kts 126°
2026-05-06 22:25 4.84813 -74.35102 11915 ft 232 kts 126°
2026-05-06 22:25 4.83835 -74.33809 11877 ft 232 kts 126°
2026-05-06 22:25 4.83192 -74.32958 11883 ft 231 kts 126°
2026-05-06 22:26 4.82212 -74.31661 11855 ft 234 kts 126°
2026-05-06 22:26 4.81237 -74.30373 11634 ft 229 kts 126°
2026-05-06 22:26 4.80287 -74.29121 11326 ft 222 kts 126°
2026-05-06 22:26 4.79364 -74.27901 11030 ft 217 kts 126°
2026-05-06 22:27 4.78474 -74.26726 10751 ft 205 kts 126°
2026-05-06 22:27 4.77640 -74.25624 10489 ft 194 kts 126°
2026-05-06 22:27 4.76836 -74.24562 10235 ft 189 kts 126°
2026-05-06 22:27 4.76071 -74.23551 10007 ft 173 kts 126°
2026-05-06 22:28 4.75366 -74.22620 9769 ft 163 kts 126°
2026-05-06 22:28 4.74689 -74.21726 9556 ft 159 kts 126°
2026-05-06 22:28 4.74025 -74.20848 9344 ft 157 kts 126°
2026-05-06 22:28 4.73365 -74.19977 9139 ft 156 kts 126°
2026-05-06 22:29 4.72710 -74.19110 8932 ft 156 kts 127°
2026-05-06 22:29 4.72056 -74.18245 8717 ft 155 kts 126°
2026-05-06 22:29 4.71406 -74.17380 8521 ft 156 kts 126°
2026-05-06 22:29 4.70753 -74.16519 8381 ft 150 kts 126°
2026-05-06 22:30 4.70212 -74.15801 8372 ft 105 kts 127°
2026-05-06 22:30 4.69877 -74.15359 8375 ft 55 kts 127°
2026-05-06 22:30 4.69742 -74.15147 8374 ft 29 kts 107°
2026-05-06 22:30 4.69710 -74.14947 8372 ft 29 kts 97°
2026-05-06 22:31 4.69778 -74.14801 8372 ft 23 kts 36°
2026-05-06 22:31 4.69853 -74.14731 8373 ft 10 kts 84°
2026-05-06 22:31 4.69820 -74.14671 8373 ft 9 kts 125°
2026-05-06 22:31 4.69787 -74.14627 8373 ft 8 kts 128°
2026-05-06 22:32 4.69771 -74.14591 8373 ft 4 kts 62°
2026-05-06 22:32 4.69790 -74.14577 8373 ft 2 kts 37°
2026-05-06 22:32 4.69802 -74.14567 8373 ft 3 kts 37°
2026-05-06 22:32 4.69808 -74.14563 8373 ft 0 kts 37°